Wetbulb
55.71 55.75 55.72 55.51 55.15 54.83 54.84 55.06 55.08 55.05 54.80 54.65 54.68 54.10 54.71 53.94 52.77 51.23 47.30 51.80 52.83 56.09 57.57 54.95 55.01 54.20 53.76 50.94 51.86 52.68 44.12 41.19 43.35 43.48 45.23 49.18 47.21 51.52 52.08 51.02 52.24 52.97 51.60 50.02 55.64
55.27 55.33 55.17 55.27 54.93 54.80 54.69 54.58 54.89 54.89 54.84 54.66 54.18 54.13 54.92 53.05 50.03 47.80 52.70 53.60 54.95 57.00 52.88 51.06 49.87 50.75 46.87 46.78 47.46 46.18 42.24 43.01 46.83 47.25 46.34 47.72 47.51 48.85 47.40 47.88 49.88 49.67 50.36 51.68 53.89
55.05 55.02 54.88 54.73 54.41 54.50 54.11 54.47 54.50 54.37 54.00 54.00 54.06 53.72 52.43 52.03 45.28 45.34 54.05 54.90 56.15 57.16 53.40 53.00 51.28 47.93 44.16 45.17 44.62 43.33 41.05 44.88 44.35 45.54 47.03 46.75 45.70 48.37 46.24 45.09 47.53 48.31 48.61 49.94 52.38
54.90 54.66 54.31 54.21 54.12 53.96 53.68 53.78 54.20 54.01 53.18 52.84 53.29 53.21 52.48 49.81 35.73 48.81 55.14 56.64 56.50 56.11 52.52 51.11 48.79 43.78 41.74 39.78 43.50 38.92 42.65 43.46 44.39 43.68 43.29 43.45 46.80 45.74 46.23 45.43 44.59 45.86 46.79 48.01 49.78
54.38 54.22 53.82 53.72 53.73 53.53 53.15 53.31 53.63 53.57 52.51 52.71 52.58 53.24 49.76 42.29 42.20 51.10 54.69 55.93 55.00 53.54 49.41 47.48 44.96 43.29 39.35 41.49 41.81 39.78 40.64 42.12 43.11 42.60 42.44 43.57 41.62 42.72 43.53 42.39 44.67 45.34 45.47 47.07 49.54
54.07 53.80 53.40 53.38 53.23 53.22 53.27 53.10 53.50 52.61 51.78 51.58 52.57 53.06 46.73 36.32 45.55 49.50 48.07 48.95 50.58 50.34 48.55 47.25 44.40 45.34 41.02 40.19 39.09 40.33 40.31 40.94 41.34 41.00 41.60 40.16 41.09 42.27 42.19 41.74 42.92 44.30 45.67 47.46 46.06
53.62 53.34 53.01 52.83 52.99 52.82 52.84 53.23 53.03 51.78 50.35 51.42 52.61 50.67 43.24 40.32 43.96 46.78 43.09 44.25 45.35 48.69 45.90 47.19 45.55 42.75 41.64 37.40 41.40 39.54 35.33 37.45 38.58 39.96 39.45 40.79 36.55 38.13 43.47 41.35 42.11 43.03 44.06 43.58 41.93
53.20 52.63 52.47 52.40 52.40 52.57 52.17 52.02 52.24 50.80 50.87 51.87 52.94 48.24 39.42 45.87 44.15 41.68 42.42 40.39 41.97 42.18 41.20 44.89 44.70 41.93 39.19 39.67 36.41 34.03 34.84 30.33 37.47 38.63 38.24 38.29 31.67 39.80 39.99 40.06 41.01 42.33 41.61 39.91 37.86
52.73 52.03 51.97 51.94 51.94 52.08 51.52 51.29 50.02 50.17 52.01 52.31 48.27 44.20 36.99 45.30 38.98 40.93 41.79 38.84 39.32 39.80 40.21 40.92 40.77 37.51 37.00 31.67 30.20 32.09 27.14 30.13 32.77 38.86 37.93 35.87 32.90 36.48 37.38 38.49 40.10 41.18 40.75 39.13 36.23
52.10 51.58 51.50 51.49 51.35 50.98 49.91 49.85 50.29 51.16 50.39 49.67 46.62 39.10 39.34 35.98 38.87 39.92 41.81 40.49 37.30 37.07 35.91 35.80 35.25 31.51 31.73 29.58 22.07 25.91 27.49 29.55 30.71 35.47 35.54 34.30 33.52 34.26 35.23 37.67 39.14 40.11 40.32 37.88 36.17
51.41 51.36 51.20 51.22 51.00 47.56 46.88 47.40 43.25 41.51 44.45 39.59 37.99 36.57 37.07 39.66 42.14 39.00 40.39 38.92 37.72 35.32 29.91 33.00 28.62 25.92 29.81 31.42 31.36 30.47 28.31 28.00 32.07 34.90 32.13 32.57 33.61 34.76 33.93 35.55 37.21 37.96 38.55 37.58 34.64
50.99 50.96 50.56 51.15 49.65 43.55 44.16 40.18 38.57 38.94 33.33 41.76 38.77 36.96 39.17 40.18 34.47 36.61 40.67 34.73 33.28 29.07 32.35 28.52 25.23 31.64 33.23 32.13 30.20 29.07 26.85 26.90 31.25 32.99 30.68 31.00 31.37 32.90 32.23 33.86 35.48 36.25 36.99 37.04 35.09
50.86 50.63 49.56 50.15 47.36 44.58 41.92 39.67 42.12 41.48 33.71 33.89 38.58 36.12 36.49 38.66 33.36 32.76 36.84 35.13 31.98 29.65 29.33 27.18 29.36 31.16 29.41 28.40 25.97 26.78 25.34 26.56 27.07 31.05 30.97 29.65 28.47 30.17 30.59 30.99 30.73 33.12 36.07 36.36 35.52
50.48 49.09 48.77 47.52 43.59 43.36 40.59 42.38 42.55 42.64 29.31 28.07 31.66 34.13 36.37 37.73 30.14 35.67 35.64 33.99 31.69 28.27 29.62 28.78 31.11 27.51 27.42 26.16 28.09 22.79 30.17 28.25 26.66 25.78 20.93 30.00 19.03 29.35 29.79 26.53 27.59 29.95 31.18 33.16 33.99
50.40 47.94 47.72 43.75 42.11 40.45 40.49 42.77 42.64 40.62 15.90 29.66 30.70 38.88 37.08 32.81 32.57 31.23 36.04 34.09 28.60 28.48 28.48 25.14 25.88 25.42 24.76 25.75 26.88 25.25 30.66 28.50 27.45 24.53 24.11 24.91 21.44 27.08 30.45 25.13 26.14 27.81 30.54 31.79 33.64
49.57 46.85 44.61 42.31 43.17 40.54 42.74 42.22 41.13 26.75 14.97 24.28 30.37 28.90 29.28 30.66 29.23 31.34 30.73 33.44 31.08 27.03 27.71 26.77 29.59 27.29 25.80 27.17 27.64 29.07 27.53 27.57 27.36 24.94 16.88 22.88 22.35 23.74 26.27 26.10 28.91 27.21 28.86 29.76 31.17
47.97 45.18 42.01 41.50 37.14 41.79 41.90 40.02 26.49 19.68 27.37 22.01 23.97 27.41 26.50 24.71 25.18 26.52 24.34 21.83 21.11 18.78 19.76 23.49 23.79 26.89 27.26 24.16 28.44 26.04 24.07 16.75 15.19 15.75 14.77 25.28 22.04 25.05 21.98 23.16 26.66 25.68 26.88 28.42 29.25
46.74 43.79 43.21 40.63 42.31 42.45 41.01 32.89 18.48 22.11 21.51 26.24 25.53 25.65 21.33 23.83 23.18 23.74 22.53 19.87 22.93 21.41 19.54 16.70 15.92 21.85 25.71 23.00 21.42 23.82 23.58 17.09 9.89 12.92 17.02 23.44 18.13 21.91 21.44 24.13 26.62 26.93 27.49 27.60 28.16
45.54 42.89 40.96 39.25 42.06 41.31 35.57 20.31 16.15 19.81 23.54 22.73 24.38 21.33 20.21 22.17 22.51 21.73 19.42 18.06 20.01 21.84 15.52 15.09 14.57 23.83 24.19 24.61 23.95 22.15 19.49 24.81 18.56 20.33 16.26 20.19 17.26 20.22 21.81 21.53 23.43 23.86 25.66 25.71 26.70
41.68 40.64 37.76 41.68 40.28 38.81 29.93 19.01 19.49 23.99 24.35 25.19 18.86 22.11 18.12 18.87 19.37 19.60 18.08 20.72 19.43 22.75 24.02 17.56 12.60 19.84 22.49 24.36 23.20 21.67 24.53 17.53 19.33 9.60 9.59 15.63 15.80 18.11 17.01 18.91 22.05 22.87 23.48 24.91 26.33
40.72 34.78 38.44 42.16 40.54 32.74 20.92 20.24 22.37 25.97 25.77 22.64 20.56 19.45 19.37 18.06 19.75 17.46 16.00 19.78 22.56 22.06 24.18 20.44 16.32 17.21 21.18 15.98 14.23 18.46 19.17 19.31 19.98 18.22 12.27 11.27 13.31 16.98 20.05 21.02 21.22 22.17 23.59 24.56 25.34
38.05 26.94 39.52 41.40 28.72 27.48 21.05 22.66 25.37 24.02 26.55 24.05 23.73 21.33 19.34 19.61 17.94 17.34 16.10 19.22 24.34 23.91 18.87 21.78 17.47 13.63 13.53 16.87 16.86 16.91 15.08 17.11 13.42 12.59 16.69 15.30 11.61 17.47 18.52 23.15 22.65 22.18 23.01 23.75 24.01
33.67 32.17 39.31 37.86 22.12 22.64 25.09 23.04 24.00 22.77 22.56 22.29 20.38 22.22 22.44 18.24 15.01 18.87 19.11 22.98 24.06 22.43 19.60 21.53 16.17 11.37 10.83 14.21 17.53 15.63 16.09 13.06 14.28 15.32 13.21 10.97 11.21 19.34 20.36 22.61 23.32 22.04 23.05 23.22 23.43
34.06 26.95 32.29 32.78 30.31 25.14 22.36 21.81 20.63 25.91 23.97 24.17 22.65 23.75 21.33 19.34 21.51 16.66 17.29 20.81 23.08 22.41 23.68 23.47 16.92 13.05 8.72 10.65 15.12 12.78 14.07 14.07 11.20 12.30 10.30 9.22 12.22 14.86 18.06 19.65 21.48 22.72 23.57 23.20 23.03
34.09 26.94 29.10 22.76 24.75 25.41 25.52 23.81 20.45 19.39 25.31 25.31 21.99 21.07 17.98 14.55 17.50 16.03 18.52 19.83 21.65 23.00 21.53 20.29 12.75 15.30 15.27 16.00 15.98 14.26 13.45 12.48 8.55 7.33 8.81 7.91 8.81 13.00 18.34 20.00 22.01 23.42 23.31 22.29 22.15
31.58 29.46 31.05 27.47 28.07 25.75 24.59 21.52 20.14 20.95 21.54 19.67 18.88 20.98 20.74 14.90 14.86 11.87 16.25 17.80 16.41 21.20 19.13 20.17 13.80 15.07 12.21 16.12 16.16 12.03 14.07 14.04 12.29 9.93 11.53 12.05 12.63 16.84 17.89 21.10 20.04 20.58 21.68 22.10 22.42
36.42 35.82 32.20 26.66 25.52 23.77 21.63 22.14 21.55 23.77 23.61 23.55 22.34 21.14 18.22 17.88 21.35 21.80 22.63 21.59 19.37 17.03 16.93 15.58 14.95 12.75 9.11 14.36 14.40 9.02 10.04 12.11 12.18 13.29 10.43 7.91 13.68 18.16 17.76 18.95 20.51 20.83 21.72 22.54 23.83
MSLP
1015.78 1015.36 1014.95 1014.59 1014.21 1013.88 1013.60 1013.49 1013.21 1013.01 1012.86 1012.79 1012.65 1012.44 1012.35 1012.35 1012.38 1012.23 1011.43 1010.70 1010.60 1010.96 1010.98 1010.45 1010.44 1010.46 1010.20 1009.82 1009.69 1009.28 1007.57 1004.98 1004.47 1004.60 1004.66 1005.61 1006.50 1006.83 1007.41 1007.47 1008.16 1008.84 1009.75 1011.57 1012.32
1015.84 1015.26 1014.79 1014.52 1013.95 1013.59 1013.41 1013.25 1013.05 1012.94 1012.65 1012.38 1012.49 1012.47 1012.38 1012.28 1012.05 1011.05 1010.57 1010.93 1010.99 1010.89 1010.51 1010.06 1009.91 1010.44 1010.17 1009.80 1009.74 1008.92 1007.09 1005.53 1005.26 1005.07 1005.34 1005.98 1006.89 1006.86 1007.98 1008.03 1008.37 1009.70 1011.23 1012.04 1012.90
1015.74 1015.26 1014.81 1014.34 1013.78 1013.63 1013.48 1013.19 1012.94 1012.90 1012.80 1012.61 1012.50 1012.54 1012.44 1012.51 1011.67 1009.51 1009.82 1010.74 1010.85 1010.72 1010.09 1009.80 1009.97 1010.37 1009.76 1009.57 1009.21 1008.51 1006.39 1006.62 1006.44 1006.86 1007.03 1007.02 1007.69 1007.87 1008.19 1008.38 1009.30 1009.79 1011.05 1012.28 1012.97
1015.58 1015.09 1014.62 1014.13 1013.73 1013.42 1013.08 1012.83 1012.63 1012.51 1012.44 1012.41 1012.42 1012.44 1012.62 1012.25 1011.06 1009.92 1010.04 1010.34 1010.60 1010.19 1010.24 1009.89 1009.99 1010.09 1009.56 1009.29 1009.19 1008.68 1007.67 1007.64 1007.40 1008.17 1008.32 1008.28 1008.26 1008.19 1008.73 1009.75 1011.02 1011.52 1012.17 1012.51 1013.43
1015.64 1015.14 1014.64 1014.18 1013.78 1013.31 1012.95 1012.63 1012.33 1012.23 1012.17 1012.11 1012.15 1012.36 1012.75 1011.62 1010.14 1010.37 1010.17 1010.12 1010.43 1010.55 1010.27 1010.18 1009.99 1009.75 1009.33 1009.02 1009.32 1008.77 1008.72 1008.60 1008.79 1009.09 1009.18 1009.11 1009.27 1009.11 1009.39 1011.18 1011.95 1012.50 1012.88 1013.26 1013.98
1015.67 1015.21 1014.75 1014.22 1013.70 1013.29 1012.98 1012.62 1012.38 1012.09 1011.97 1012.01 1012.14 1012.22 1012.01 1011.20 1010.41 1010.41 1010.66 1010.79 1010.45 1010.47 1010.54 1010.32 1009.98 1009.82 1009.61 1009.45 1009.40 1009.21 1009.16 1008.90 1009.26 1009.59 1009.85 1009.90 1009.82 1010.02 1010.63 1012.01 1012.48 1012.92 1013.42 1014.13 1015.26
1015.57 1015.00 1014.43 1013.86 1013.36 1012.98 1012.69 1012.46 1012.28 1012.08 1011.89 1011.78 1012.06 1012.17 1011.52 1010.42 1010.39 1010.69 1010.77 1010.84 1010.96 1010.80 1010.75 1010.79 1010.66 1010.28 1010.33 1010.17 1010.22 1010.09 1010.01 1009.70 1009.44 1009.54 1009.61 1010.30 1009.89 1009.67 1010.57 1011.92 1012.53 1013.28 1014.19 1015.33 1016.58
1015.31 1014.70 1014.07 1013.52 1013.01 1012.59 1012.34 1012.14 1011.97 1011.88 1011.83 1011.56 1012.02 1011.90 1010.57 1010.82 1010.78 1010.99 1010.99 1011.25 1011.31 1011.44 1011.49 1011.53 1011.58 1011.22 1011.05 1011.07 1010.93 1010.71 1010.46 1009.53 1009.05 1009.35 1009.86 1010.43 1008.80 1009.79 1011.41 1012.05 1012.45 1013.48 1014.66 1016.04 1017.45
1015.13 1014.42 1013.64 1012.96 1012.47 1012.14 1011.85 1011.71 1011.65 1011.67 1011.67 1011.69 1011.92 1011.67 1010.52 1011.18 1011.03 1011.12 1011.19 1011.25 1011.55 1011.65 1011.87 1011.96 1011.98 1011.75 1011.76 1011.69 1011.15 1010.60 1009.68 1009.07 1008.66 1008.61 1009.30 1010.10 1009.69 1011.11 1012.33 1012.49 1012.63 1013.72 1014.94 1016.29 1017.73
1015.00 1014.18 1013.26 1012.43 1012.00 1011.71 1011.49 1011.32 1011.38 1011.52 1011.61 1011.43 1011.59 1011.89 1010.82 1010.61 1011.14 1011.54 1011.57 1011.54 1011.66 1011.84 1012.15 1012.11 1012.03 1012.01 1011.99 1011.61 1010.67 1010.40 1009.84 1009.52 1008.71 1008.79 1009.58 1009.75 1010.34 1011.95 1012.98 1013.09 1013.10 1013.86 1015.02 1016.59 1017.80
1014.92 1014.00 1012.97 1012.15 1011.77 1011.60 1011.56 1011.08 1011.30 1011.21 1010.96 1010.03 1010.27 1010.44 1010.67 1011.15 1011.26 1011.83 1011.96 1011.70 1011.70 1011.89 1011.83 1012.17 1012.09 1011.51 1011.32 1011.38 1011.35 1011.08 1010.93 1010.14 1009.65 1009.57 1010.34 1010.21 1010.51 1011.55 1013.40 1013.92 1014.07 1014.69 1015.46 1016.63 1017.95
1014.79 1013.92 1012.97 1012.20 1011.85 1011.80 1011.47 1010.70 1011.10 1011.72 1010.52 1010.26 1010.76 1010.91 1011.06 1011.11 1011.54 1012.11 1012.08 1011.91 1011.83 1011.62 1011.71 1012.50 1011.93 1011.51 1011.59 1011.75 1011.80 1011.67 1011.44 1011.10 1010.75 1010.70 1011.26 1011.19 1011.00 1012.53 1014.05 1014.67 1015.29 1015.60 1015.97 1016.85 1018.12
1014.70 1013.66 1012.77 1012.19 1011.88 1011.75 1011.30 1011.42 1011.75 1011.67 1010.85 1010.70 1010.65 1010.80 1011.38 1011.35 1012.09 1012.74 1012.68 1012.25 1011.82 1011.66 1011.90 1011.83 1011.83 1012.31 1012.39 1012.52 1012.57 1012.23 1011.92 1011.69 1011.41 1011.26 1011.96 1012.12 1011.45 1012.67 1014.62 1015.97 1016.92 1017.11 1017.06 1017.44 1018.06
1014.50 1013.43 1012.52 1012.12 1012.18 1011.38 1011.24 1011.97 1012.02 1011.94 1010.46 1011.11 1011.07 1011.74 1011.71 1011.62 1012.88 1013.61 1013.62 1013.24 1012.48 1012.20 1012.31 1012.46 1012.67 1013.15 1013.20 1013.08 1012.89 1012.29 1012.15 1012.29 1012.46 1012.25 1011.82 1012.34 1011.37 1011.68 1013.94 1016.24 1017.35 1017.90 1018.41 1018.44 1018.83
1014.37 1013.22 1012.43 1012.07 1011.69 1011.27 1012.26 1012.07 1012.03 1011.88 1010.95 1011.73 1012.05 1012.48 1012.14 1012.46 1013.42 1014.12 1014.18 1013.44 1013.12 1013.00 1013.61 1013.41 1013.75 1014.00 1014.00 1013.93 1013.91 1013.08 1012.85 1012.70 1012.84 1012.89 1012.84 1012.63 1012.92 1011.93 1013.74 1016.00 1017.25 1018.27 1018.71 1019.20 1019.45
1014.33 1013.45 1012.67 1012.12 1011.68 1012.51 1012.32 1012.09 1011.96 1011.51 1011.22 1012.61 1012.82 1012.73 1012.82 1013.43 1014.26 1014.60 1014.62 1014.73 1014.95 1014.46 1014.50 1014.62 1015.47 1015.59 1015.66 1015.28 1014.92 1014.58 1013.98 1013.50 1013.40 1013.51 1012.91 1012.44 1013.38 1012.83 1014.56 1016.22 1016.86 1018.77 1019.43 1020.00 1020.37
1014.55 1014.05 1013.43 1012.86 1012.91 1012.88 1012.48 1011.77 1011.27 1011.14 1012.71 1013.76 1013.76 1013.58 1013.94 1014.52 1015.18 1015.47 1015.75 1016.21 1016.14 1015.70 1015.29 1015.68 1016.22 1016.75 1016.96 1016.06 1015.35 1015.51 1014.85 1014.05 1013.73 1013.20 1011.90 1012.12 1013.51 1014.57 1016.91 1017.93 1018.17 1019.19 1020.41 1020.91 1021.29
1014.69 1014.16 1013.61 1013.41 1013.44 1013.02 1012.13 1011.34 1011.71 1013.68 1014.49 1015.11 1014.85 1014.75 1015.07 1015.68 1016.37 1016.55 1016.73 1017.25 1017.91 1017.67 1017.04 1016.87 1017.25 1017.91 1018.27 1017.93 1017.28 1016.24 1015.77 1014.73 1013.38 1012.70 1011.95 1012.89 1014.10 1016.57 1018.54 1019.25 1019.70 1020.34 1021.25 1021.80 1022.11
1014.15 1013.36 1013.50 1013.95 1013.71 1013.10 1011.99 1012.84 1015.63 1016.30 1016.61 1016.17 1015.63 1015.32 1016.02 1016.63 1016.93 1017.50 1018.39 1018.95 1019.42 1019.24 1019.03 1018.57 1018.30 1018.88 1019.10 1019.11 1018.91 1017.61 1017.03 1016.74 1015.48 1014.13 1014.00 1014.05 1016.27 1018.16 1019.46 1020.31 1020.90 1021.52 1021.97 1022.47 1022.84
1014.30 1013.65 1014.18 1014.06 1013.92 1012.87 1012.59 1015.48 1017.44 1018.06 1017.78 1016.83 1016.35 1016.55 1016.62 1017.47 1017.60 1018.10 1019.14 1020.27 1020.16 1020.38 1020.26 1020.36 1019.63 1019.48 1019.38 1019.55 1019.77 1019.23 1018.88 1017.66 1016.75 1015.59 1014.65 1015.09 1016.64 1018.26 1019.99 1020.87 1021.64 1022.19 1022.68 1023.18 1023.51
1014.15 1013.89 1015.49 1014.44 1013.64 1013.56 1015.15 1017.19 1018.37 1018.77 1018.47 1018.00 1017.80 1017.79 1018.21 1018.39 1018.70 1019.25 1020.41 1021.06 1020.95 1020.76 1020.63 1020.64 1020.76 1019.81 1019.80 1021.05 1021.27 1020.11 1019.36 1019.01 1018.10 1017.13 1016.43 1016.67 1018.63 1020.78 1020.91 1021.49 1022.28 1022.95 1023.44 1023.87 1024.18
1015.32 1015.63 1016.80 1014.70 1014.30 1016.11 1017.58 1018.84 1019.42 1019.50 1019.23 1019.29 1019.29 1019.40 1019.51 1019.65 1019.83 1020.13 1020.85 1021.24 1021.59 1021.28 1020.69 1021.14 1021.19 1020.45 1021.64 1022.56 1022.77 1022.46 1022.03 1021.16 1019.99 1018.78 1018.40 1018.72 1020.81 1022.25 1022.51 1022.46 1023.12 1023.69 1024.20 1024.66 1025.06
1016.65 1017.42 1017.76 1016.30 1016.35 1017.83 1019.16 1019.94 1020.44 1020.33 1020.27 1020.24 1020.49 1020.62 1020.76 1020.74 1020.83 1021.05 1021.52 1022.24 1022.16 1021.84 1021.72 1021.61 1021.38 1020.84 1021.89 1022.88 1022.85 1022.68 1022.92 1023.10 1022.26 1021.31 1020.33 1020.73 1022.04 1023.08 1023.31 1023.31 1023.79 1024.23 1024.71 1025.21 1025.66
1017.39 1017.94 1018.43 1018.59 1019.19 1019.42 1019.97 1020.63 1021.00 1021.30 1021.25 1021.40 1021.46 1021.31 1021.25 1021.37 1021.57 1022.08 1022.34 1022.70 1022.68 1022.59 1022.54 1022.35 1022.00 1021.80 1022.05 1022.80 1023.15 1023.11 1023.44 1023.52 1023.34 1022.67 1022.77 1023.22 1023.31 1023.74 1023.94 1024.09 1024.36 1024.66 1025.08 1025.58 1026.03
1018.86 1020.68 1020.98 1020.56 1020.65 1020.82 1021.08 1021.64 1021.82 1021.93 1021.89 1022.05 1022.11 1022.37 1022.59 1022.60 1022.56 1022.91 1023.07 1022.85 1023.00 1022.93 1022.79 1022.76 1022.49 1022.50 1022.83 1023.09 1023.25 1023.67 1023.95 1024.32 1024.56 1025.12 1024.67 1024.96 1024.80 1024.99 1024.74 1024.66 1024.78 1025.03 1025.38 1025.78 1026.16
1020.46 1021.19 1021.48 1021.64 1021.84 1021.88 1022.19 1022.68 1022.84 1023.00 1023.03 1023.15 1023.33 1023.51 1023.64 1024.09 1024.60 1024.46 1024.22 1023.90 1023.84 1023.28 1023.11 1023.11 1022.79 1022.92 1022.89 1023.22 1023.39 1024.15 1024.65 1024.97 1025.43 1025.88 1025.53 1025.29 1025.19 1025.76 1025.61 1025.35 1025.43 1025.47 1025.57 1025.71 1025.98
1022.41 1022.39 1022.01 1022.80 1022.94 1022.91 1023.77 1023.76 1023.62 1023.47 1023.98 1024.15 1024.06 1024.07 1024.64 1025.38 1025.26 1025.15 1024.95 1024.86 1024.84 1024.47 1023.91 1023.81 1023.43 1023.03 1022.74 1023.33 1023.49 1024.22 1025.72 1025.84 1026.43 1026.87 1026.95 1026.35 1026.33 1025.91 1025.74 1025.63 1025.51 1025.66 1025.79 1025.74 1025.73
Wind_Speed
17 17 16 15 14 13 13 13 13 12 11 11 11 8 10 4 5 10 15 2 5 7 10 12 12 9 11 11 8 9 14 19 23 21 12 3 6 12 2 10 3 4 5 6 12
18 18 17 17 16 14 14 14 12 13 11 10 10 9 11 4 11 15 6 5 8 9 14 17 16 14 10 13 8 15 15 18 16 11 9 7 12 9 6 11 10 7 8 8 10
20 20 19 18 17 15 14 15 12 12 12 11 8 7 2 6 9 4 7 12 11 10 13 15 11 15 15 12 14 13 22 20 3 8 4 9 11 8 9 10 2 10 9 6 7
21 21 20 18 17 16 14 12 13 11 10 9 7 5 5 7 7 4 8 14 12 12 8 12 14 16 12 14 16 12 17 21 13 5 5 11 12 15 14 2 6 5 4 2 6
21 21 20 18 16 15 13 12 12 11 10 8 7 8 6 7 8 5 3 11 9 11 13 14 16 15 13 12 14 17 16 7 12 5 6 10 9 11 10 5 2 1 1 4 8
23 22 20 19 16 15 13 12 12 11 9 9 9 11 9 13 5 5 4 5 7 11 12 13 10 15 6 10 14 3 14 19 11 11 11 16 14 13 5 3 2 2 4 6 6
24 24 22 20 18 15 14 13 12 10 7 6 8 9 8 6 2 5 3 1 0 5 8 8 4 8 7 4 12 11 11 10 12 15 16 11 18 22 13 7 6 6 7 8 6
25 25 24 21 18 15 14 13 11 6 5 7 9 6 6 3 4 4 4 4 5 4 2 1 4 7 5 3 3 9 14 16 16 17 9 14 20 20 6 9 9 8 8 8 7
26 27 26 23 19 15 15 11 9 5 6 8 7 7 4 5 5 5 1 4 6 5 4 4 4 5 6 7 10 12 12 17 16 12 17 16 13 5 2 8 10 9 9 7 8
27 29 28 22 15 13 6 4 6 8 6 5 2 6 6 4 6 5 4 5 3 9 6 4 5 7 9 10 10 12 16 15 15 11 13 17 17 7 1 7 11 10 10 8 7
28 28 26 18 11 6 4 4 6 6 10 5 3 3 6 7 5 7 3 5 6 8 8 8 8 10 14 16 15 14 12 14 11 2 5 12 15 11 5 6 9 8 9 10 8
28 28 24 15 8 1 5 5 5 4 6 11 1 3 5 0 5 6 6 6 7 9 8 5 10 12 10 8 12 13 14 15 13 2 2 12 13 9 4 5 6 8 9 9 8
28 28 23 14 5 4 4 2 2 2 7 4 6 5 3 3 5 5 7 1 6 9 9 12 3 7 4 10 10 13 15 13 14 7 7 11 14 12 8 6 5 4 5 6 9
29 30 20 15 6 2 2 4 2 2 6 8 5 4 2 6 6 5 7 4 4 6 4 8 5 2 8 10 9 14 12 14 14 13 13 13 11 18 16 12 11 10 9 9 6
30 28 13 7 7 3 6 4 0 4 5 5 6 3 5 3 5 7 9 3 5 2 5 4 2 4 6 5 7 10 12 9 10 12 13 12 8 14 15 12 13 13 11 8 6
30 20 15 3 3 5 6 2 4 6 3 5 3 2 5 9 6 2 4 7 2 3 2 5 3 5 6 8 6 8 7 10 11 8 11 21 15 12 10 7 13 13 11 9 6
29 10 14 7 7 11 5 4 5 3 1 5 5 4 10 5 6 8 12 12 7 3 2 3 3 3 7 7 7 6 9 7 10 10 11 11 15 4 5 5 5 13 7 5 4
25 8 10 8 7 7 5 7 5 10 11 3 3 8 6 5 6 7 4 8 13 8 3 4 5 6 7 5 7 7 9 9 10 12 14 7 9 6 5 5 8 9 7 6 5
14 4 14 12 8 6 7 11 9 10 10 8 1 1 6 7 3 4 12 6 9 11 7 5 4 3 2 3 4 2 7 5 7 10 5 4 5 6 7 7 7 8 7 7 6
4 5 18 18 10 7 7 10 8 10 9 6 5 8 5 7 3 4 6 8 5 8 4 5 4 2 3 1 0 5 6 4 6 7 12 3 1 4 5 7 6 7 6 6 6
5 5 18 19 6 10 12 8 10 12 9 11 9 6 8 5 7 5 5 5 7 6 4 2 2 3 4 8 7 4 2 4 4 3 6 6 5 5 5 6 7 7 7 7 6
11 13 14 8 12 8 13 9 5 13 8 9 10 11 10 7 7 5 6 6 7 7 5 5 4 2 5 3 1 3 6 5 5 4 0 3 4 5 5 5 7 7 7 7 8
10 11 13 13 13 13 12 11 16 15 15 7 10 10 8 5 3 5 5 5 7 8 7 8 2 3 6 4 5 4 6 4 6 4 2 4 5 4 3 6 7 7 7 7 8
4 5 8 11 13 13 11 14 7 12 14 10 10 6 3 8 8 5 4 5 4 8 6 4 3 5 7 7 5 5 10 8 3 4 7 6 5 3 3 4 5 6 7 7 6
5 6 5 9 11 13 15 12 15 8 10 15 10 15 5 4 5 5 6 2 2 7 3 4 3 4 5 6 6 7 8 10 9 5 6 8 6 9 7 1 4 4 6 6 5
4 4 7 9 11 14 10 11 13 9 10 7 10 11 12 7 6 5 6 8 7 6 3 3 2 2 4 4 6 12 13 10 8 10 3 8 4 10 7 3 2 2 0 4 4
4 2 2 8 10 6 9 11 11 3 8 8 8 5 9 7 6 5 5 5 5 6 6 5 4 4 5 3 5 3 10 10 10 11 4 9 12 8 3 3 2 1 2 4 4
Wind_Direction
340 335 329 321 316 309 304 306 306 298 294 292 292 281 282 263 275 252 248 249 208 178 234 168 173 189 197 206 238 236 230 237 239 242 240 124 201 218 324 266 189 120 32 81 112
342 337 330 322 317 312 305 301 311 303 297 290 283 291 291 273 267 256 247 233 218 193 196 186 184 182 194 199 204 211 227 242 254 261 212 195 204 185 210 211 226 190 102 107 133
345 340 332 326 320 313 306 302 306 304 302 293 279 280 270 259 275 253 179 209 207 195 217 201 186 194 212 215 208 220 238 232 200 338 289 211 195 216 229 241 197 217 124 121 147
349 344 337 331 323 313 301 296 293 293 290 275 257 241 161 230 270 70 311 194 203 200 208 205 192 201 213 207 223 250 240 245 282 143 207 241 258 236 240 332 26 17 349 127 166
348 345 338 331 325 317 306 292 289 289 284 264 235 169 206 217 254 90 52 150 187 198 193 195 199 201 215 219 235 227 258 215 257 199 241 255 239 240 245 47 33 12 145 166 118
349 344 339 331 323 317 310 297 297 292 290 266 220 170 239 247 90 121 116 152 171 193 205 207 220 217 274 229 233 243 241 250 222 232 243 245 233 234 164 154 150 137 116 112 114
349 344 338 332 321 317 308 302 301 294 283 225 186 204 248 263 96 136 134 83 93 255 206 221 237 193 227 248 233 268 247 238 239 248 240 225 249 236 233 167 159 150 123 110 96
346 342 336 329 320 310 305 299 287 276 242 198 170 221 261 76 107 144 137 93 80 73 6 221 227 243 232 81 190 231 234 246 232 221 211 214 255 226 136 197 188 168 141 129 107
342 339 332 324 318 308 305 293 276 210 207 149 182 235 238 133 166 113 132 150 116 105 80 128 175 212 193 230 237 219 248 226 241 215 213 207 253 127 214 208 201 186 157 145 125
343 339 333 323 315 318 314 316 149 167 186 187 252 235 163 179 120 101 75 136 130 136 117 156 186 215 212 208 221 233 233 243 264 196 210 238 231 118 119 218 200 188 168 158 144
344 341 337 336 322 327 204 189 191 189 205 234 27 306 113 107 141 65 18 163 145 191 197 191 212 216 225 229 235 277 293 285 266 138 240 247 254 175 152 209 196 195 186 161 147
344 340 337 335 334 341 263 255 27 13 283 217 170 110 98 46 126 60 337 209 200 212 197 172 230 240 248 277 267 256 258 257 260 253 243 262 256 126 177 188 214 200 194 173 146
341 336 330 330 321 238 293 335 317 235 244 110 185 144 86 218 54 37 335 249 233 225 203 238 90 55 258 242 245 241 247 257 257 198 251 270 250 200 200 175 221 244 216 182 181
341 337 328 325 258 4 254 11 304 281 257 126 141 80 140 153 83 28 7 321 205 260 228 257 46 290 254 251 243 253 244 239 260 265 247 204 257 240 183 202 204 193 199 191 181
346 343 342 360 328 308 359 341 306 229 264 41 69 354 66 57 119 52 9 280 331 134 251 67 33 352 253 303 343 271 308 264 242 245 253 242 251 243 163 204 198 200 193 196 187
350 356 343 330 260 21 333 307 229 229 115 84 62 107 105 54 55 95 38 39 9 288 263 357 55 22 348 313 284 316 271 244 247 238 233 233 220 245 181 231 193 187 197 185 190
350 358 18 345 344 332 299 229 224 334 1 50 39 78 73 58 68 54 61 52 31 296 159 152 68 35 358 305 209 226 246 230 223 217 238 229 220 227 78 13 337 154 177 151 177
347 327 4 28 333 326 265 238 27 54 40 44 52 72 70 11 64 52 86 64 32 3 335 317 169 12 1 5 335 280 254 251 246 243 241 149 215 147 63 50 79 118 129 137 123
327 62 22 3 342 309 268 45 24 11 360 354 129 27 96 54 66 97 69 51 29 18 5 332 117 109 51 343 317 52 229 346 306 266 267 168 93 118 115 109 122 131 142 127 116
46 309 12 350 330 280 57 80 65 20 349 325 36 359 73 28 65 67 43 22 26 26 333 54 272 19 39 280 139 292 337 243 209 259 255 142 209 68 160 129 127 134 120 116 118
11 29 352 336 323 51 62 63 49 29 26 20 21 59 62 51 40 56 38 63 18 19 356 328 262 81 217 26 7 347 5 308 298 282 276 269 88 1 32 125 127 103 86 94 93
41 57 349 16 64 56 56 33 26 31 34 47 40 44 37 25 38 65 66 42 5 346 2 37 319 341 38 102 33 30 5 329 295 24 159 287 88 346 329 90 115 109 96 80 70
62 58 34 19 58 67 77 76 50 42 37 33 36 38 34 38 60 49 56 28 9 7 13 357 101 237 163 174 186 49 33 333 284 255 325 314 64 21 317 112 115 121 107 99 93
43 46 43 38 51 59 57 43 68 40 49 47 37 39 24 47 45 50 39 35 14 5 5 306 353 13 21 30 334 28 21 4 313 302 336 43 351 95 55 100 110 111 123 110 101
42 55 17 37 42 61 62 57 54 34 47 20 38 29 24 35 55 39 22 19 84 16 31 3 56 52 70 82 78 59 35 37 40 359 4 353 349 8 330 38 68 91 111 126 128
78 90 67 67 56 56 47 45 43 32 19 26 35 29 40 58 36 359 354 22 30 334 32 1 90 187 108 122 91 65 31 31 34 4 358 319 91 11 311 37 96 78 272 180 179
54 20 81 43 42 53 31 42 41 14 48 39 3 2 41 33 17 36 49 59 46 9 7 4 338 278 109 174 208 118 17 52 63 44 331 11 330 343 316 279 245 167 302 313 269